sat.trackr.live / text

‹ back to catalog

STARLINK-31116

NORAD 58947 · 2024-027S

PAYLOAD ACTIVE UNKNOWN

§ Identity

Operator
Country
US
Launch date
2024-02-10
Launch site
AFWTR
Launch vehicle
Mass (kg)
RCS (m²)

Purposes: comms

External: N2YO · Heavens-Above · Gunter

§ Orbital elements

Epoch: 2026-05-25T04:29:45.866688Z

Period
94.01 min
Inclination
53.1597°
Eccentricity
0.0001308
Mean motion
15.31708390 rev/d
Perigee alt
469.8 km
Apogee alt
471.6 km
Semi-major
6,848.9 km
B*
6.0691e-5
RAAN
314.0725°
Arg perigee
90.5652°
Mean anomaly
269.5499°
Rev number
12,904

§ Raw data

STARLINK-311161 58947U 24027S   26145.18733642  .00001519  00000+0  60691-4 0  99912 58947  53.1597 314.0725 0001308  90.5652 269.5499 15.31708390129043

JSON: /api/v1/satellites/58947 · /tle

For live sub-satellite position, see the globe view (requires WebGL).

§ Visibility from observer

Set your observer location to see the next 7 days of passes ≥ 10°. The values pass through the URL so the page stays shareable.

No JS? Fill the form by hand. The geolocation button needs JavaScript.